Regional Weather Roundup
Issued by NWS

Home | Current Version | Previous Version | Graphics & Text | Print | Product List | Glossary Off
Versions: 1 2 3 4 5 6 7 8 9 10 11 12 13 14 15 16 17 18 19 20 21 22 23 24 25 26 27 28 29 30 31 32 33 34 35 36 37 38 39 40 41 42 43 44 45 46 47 48 49 50

000
ASUS43 KDMX 161401
RWRIA

WEATHER ROUNDUP FOR IOWA
NATIONAL WEATHER SERVICE DES MOINES IA
800 AM CST MON JAN 16 2017

NOTE: "FAIR" INDICATES FEW OR NO CLOUDS BELOW 12,000 FEET WITH NO
SIGNIFICANT WEATHER AND/OR OBSTRUCTIONS TO VISIBILITY.

* - THESE STATIONS ARE NOT NWS STATIONS...THUS NOT UNDER NWS
QUALITY CONTROL.  THEY ALSO DO NOT REPORT WEATHER SUCH
AS PRECIPITATION OR FOG.

IAZ001>003-012>014-020>022-031>034-043>046-161500-
   NORTHWEST IOWA

CITY           SKY/WX    TMP DP  RH WIND       PRES   REMARKS
CARROLL *      CLOUDY    32  32 100 E10       30.05S FOG     WCI  24
CHEROKEE *     MIX PCPN  31  31 100 NE6       30.05F WCI  25
DENISON *      CLOUDY    32  30  93 E9G15     30.01S FOG     WCI  24
LE MARS *      CLOUDY    30  30 100 NE6       30.06F WCI  24
ORANGE CITY *  MIX PCPN  28  28 100 E3        30.05F
SHELDON *      CLOUDY    28  28 100 NE6       30.05S FOG     WCI  22
SIOUX CITY     CLOUDY    34  31  88 NE8       30.04F WCI  27
SPENCER        CLOUDY    28  28 100 E6        30.07F WCI  22
STORM LAKE *   CLOUDY    30  30 100 E13       30.05S FOG     WCI  20
$$

IAZ055>058-069>071-079>083-090>094-161500-
   SOUTHWEST IOWA

CITY           SKY/WX    TMP DP  RH WIND       PRES   REMARKS
ATLANTIC *     RAIN      32  32 100 NE14      30.00F WCI  22
AUDUBON *      MIX PCPN  30  28  93 E12       30.04S WCI  21
CLARINDA *     CLOUDY    34  34 100 NE8       29.99F FOG     WCI  27
COUNCIL BLFS * MIX PCPN  32  32 100 NE13      29.97F WCI  22
CRESTON *      LGT RAIN  32  32 100 E17       29.99F WCI  21
HARLAN  *      CLOUDY    32  32 100 NE12      30.04F FOG     WCI  23
LAMONI         MIX PCPN  32  31  96 NE13G21   29.98F FOG     WCI  22
RED OAK *      RAIN      32  32 100 NE16      29.98F WCI  21
SHENANDOAH *   LGT RAIN  34  32  93 NE9       29.98F WCI  26
$$

IAZ047>049-059>061-072>074-084-161500-
   CENTRAL IOWA

CITY           SKY/WX    TMP DP  RH WIND       PRES   REMARKS
AMES           CLOUDY    31  31 100 E8        30.09F FOG     WCI  23
ANKENY *       LGT RAIN  32  30  93 MISG      30.10S
BOONE *        CLOUDY    30  30 100 MISG      30.07S FOG
CHARITON *     LGT RAIN  32  32 100 E13       30.05F WCI  22
DES MOINES     FRZ RAIN  33  31  92 E8        30.07F FOG     WCI  26
GRINNELL*      MIX PCPN  32  31  97 E12       30.10F WCI  23
KNOXVILLE *    LGT RAIN  32  32 100 E12       30.07S WCI  23
MARSHALLTOWN   MIX PCPN  31  30  96 E14       30.10F FOG     WCI  21
NEWTON *       CLOUDY    32  32 100 E13       30.09S FOG     WCI  22
PELLA *        RAIN      32  32  99 E7        30.11S WCI  26
PERRY *        CLOUDY    32  32 100 E8        30.07F FOG     WCI  25
$$

IAZ004>006-015-016-023>025-035-036-161500-
   NORTH CENTRAL IOWA

CITY           SKY/WX    TMP DP  RH WIND       PRES   REMARKS
ALGONA *       CLOUDY    32  32 100 SE9       30.08F FOG     WCI  24
CLARION *      CLOUDY    30  30 100 E8        30.09F FOG     WCI  23
ESTHERVILLE    CLOUDY    27  26  96 E6        30.08F FOG     WCI  20
FORT DODGE *   CLOUDY    30  27  86 CALM      30.09S
MASON CITY     CLOUDY    29  27  92 SE12      30.12F FOG     WCI  19
FOREST CITY *  MIX PCPN  30  30 100 SE6       30.11S WCI  24
WEBSTER CITY * CLOUDY    32  32 100 E10       30.07F FOG     WCI  24
IOWA FALLS *   CLOUDY    32  30  94 E9        30.11F FOG     WCI  24
$$

IAZ007>011-017>019-026>030-037>042-050>054-066-161500-
   NORTHEAST IOWA

CITY           SKY/WX    TMP DP  RH WIND       PRES   REMARKS
CEDAR RAPIDS   CLOUDY    31  30  96 E13       30.14S FOG     WCI  21
CHARLES CITY * CLOUDY    30  30 100 SE9       30.14S FOG     WCI  22
CLINTON *      MIX PCPN  32  31  96 E13       30.19F FOG     WCI  22
DECORAH *      CLOUDY    28  27  93 SE7       30.15S FOG     WCI  21
DUBUQUE        CLOUDY    30  29  96 E8        30.17F FOG     WCI  22
MONTICELLO *   CLOUDY    32  30  93 SE7       30.16F FOG     WCI  26
OELWEIN *      CLOUDY    30  30 100 E9        30.14F FOG     WCI  22
WATERLOO       CLOUDY    31  29  92 E7        30.14F FOG     WCI  24
$$

IAZ064-065-067-068-078-161500-
   EAST CENTRAL IOWA

CITY           SKY/WX    TMP DP  RH WIND       PRES   REMARKS
DAVENPORT      FRZ RAIN  32  30  92 E13       30.19R FOG     WCI  22
IOWA CITY      FRZ RAIN  33  31  92 E8        30.17S FOG     WCI  26
MUSCATINE *    LGT RAIN  34  32  93 E9        30.17F WCI  26
QUAD CITIES    LGT RAIN  33  31  92 E9        30.18F FOG     WCI  25
$$

IAZ062-063-075>077-085>089-095>099-161500-
   SOUTHEAST IOWA

CITY           SKY/WX    TMP DP  RH WIND       PRES   REMARKS
BURLINGTON     RAIN      33  33 100 E10       30.13F FOG     WCI  25
FAIRFIELD *    CLOUDY    32  32 100 E13       30.11F FOG     WCI  22
FORT MADISON * MIX PCPN  34  30  86 E9        30.13F WCI  26
KEOKUK *       HVY RAIN  34  34 100 E10       30.10F WCI  26
OSKALOOSA *    LGT RAIN  32  31  98 E9        30.10F WCI  24
CENTERVILLE *  RAIN      32  32 100 E8        30.06F WCI  25
OTTUMWA        HVY RAIN  33  30  88 E14       30.09F FOG     WCI  23
WASHINGTON *   LGT RAIN  32  32 100 E12       30.15S WCI  23
$$

ABBREVIATIONS USED IN REMARKS
   TC - TEMPERATURES IN CELSIUS
  WCI - WIND CHILL INDEX
   HX - HEAT INDEX
  VSB - VISIBILITY
$$




USA.gov is the U.S. government's official web portal to all federal, state and local government web resources and services.